Torna al catalogo

STARLINK-6140

AttivoComunicazioniVLEO
NORAD 57111·PAYLOAD·🇺🇸 United States

Lanciato Jun 23, 2023 da Cape Canaveral Space Force Station

Loading…

Prossimi Passaggi (prossime 24 ore)

TLE

AggiornatoSource: CelesTrak SupGP

Epoca: Sep 14, 2026, 21:00 UTC

1 57111C 23090L   26257.87548611 -.00023860  00000+0 -86425-3 0  2576
2 57111  42.9997 293.0154 0001540 263.4652 228.4685 15.27589023    17

Traccia STARLINK-6140 in tempo reale con AllMySat

Download on the App Store